Regional Weather Roundup
Issued by NWS San Angelo, TX

Home | Current Version | Previous Version | Text Only | Print | Product List | Glossary On
Versions: 1 2 3 4 5 6 7 8 9 10 11 12 13 14 15 16 17 18 19 20 21 22 23 24 25 26 27 28 29 30 31 32 33 34 35 36 37 38 39 40 41 42 43 44 45 46 47 48 49 50
000
ASUS44 KSJT 190358
RWRSJT
WEST CENTRAL TEXAS REGIONAL WEATHER ROUNDUP
NATIONAL WEATHER SERVICE SAN ANGELO TX
1000 PM CST THU JAN 18 2018

NOTE: "FAIR" INDICATES FEW OR NO CLOUDS BELOW 12,000 FEET WITH NO
SIGNIFICANT WEATHER AND/OR OBSTRUCTIONS TO VISIBILITY.

TXZ049-054-064>066-071>073-076>078-098-099-113-114-127-128-139-140-
154-155-168>170-190500
...LOCATIONS ACROSS WEST CENTRAL TEXAS...

CITY           SKY/WX    TMP DP  RH WIND       PRES   REMARKS
SAN ANGELO     CLEAR     35  17  47 S7        30.24R WCI  29
ABILENE        CLEAR     36  23  59 SW6       30.22R WCI  31
DYESS AFB      CLEAR     29  17  61 S8        30.21R WCI  21
JUNCTION       MOCLDY    41  33  73 S8        30.27F WCI  36
SWEETWATER     NOT AVBL
BROWNWOOD      CLOUDY    43  32  65 S7        30.27R WCI  39
COLEMAN        NOT AVBL
SONORA         NOT AVBL
OZONA          NOT AVBL
BRADY          NOT AVBL
$$

TEXAS PANHANDLE/OKLAHOMA PANHANDLE

CITY           SKY/WX    TMP DP  RH WIND       PRES   REMARKS
AMARILLO       CLOUDY    35  12  38 S13       30.06F WCI  26
BORGER         CLOUDY    45  13  27 SW12G18   30.05R WCI  39
CANADIAN       NOT AVBL
DALHART        PTCLDY    24   5  44 SW8       30.04S WCI  15
DUMAS          NOT AVBL
GUYMON         NOT AVBL
HEREFORD       NOT AVBL
PAMPA          NOT AVBL
PERRYTON       NOT AVBL
$$

SOUTHERN PANHANDLE/SOUTH PLAINS/ROLLING PLAINS

CITY           SKY/WX    TMP DP  RH WIND       PRES   REMARKS
LUBBOCK        CLOUDY    36  16  44 SW9       30.12S WCI  29
SNYDER         NOT AVBL
CHILDRESS      CLOUDY    38  18  44 S10       30.14S WCI  31
SEMINOLE       NOT AVBL
$$

PERMIAN BASIN

CITY           SKY/WX    TMP DP  RH WIND       PRES   REMARKS
MIDLAND        CLOUDY    37  16  42 S12       30.18F WCI  29
ODESSA         CLOUDY    38  16  40 S13       30.18F WCI  30
WINK           CLEAR     34  16  47 SE9       30.16F WCI  27
$$

FAR WEST/SOUTHWEST MOUNTAINS/TRANS PECOS

CITY           SKY/WX    TMP DP  RH WIND       PRES   REMARKS
ALPINE         NOT AVBL
DRYDEN         NOT AVBL
EL PASO        PTCLDY    43  17  35 S8        30.18S WCI  38
FORT STOCKTON  CLEAR     38  16  40 S13       30.19S WCI  30
GUADALUPE PASS NOT AVBL
MARFA          NOT AVBL
PECOS          NOT AVBL
$$

DALLAS/FORT WORTH METROPLEX

CITY           SKY/WX    TMP DP  RH WIND       PRES   REMARKS
DFW AIRPORT    PTCLDY    34  16  47 S8        30.29F WCI  27
FTW MEACHAM    CLEAR     34  17  50 S10       30.30S WCI  26
DAL-EXECUTIVE  CLEAR     35  15  44 S9        30.30F WCI  28
GRAND PRAIRIE  NOT AVBL
ADDISON        CLEAR     36  12  38 S6        30.31F WCI  31
MESQUITE       NOT AVBL
LANCASTER      CLEAR     32  15  50 CALM      30.34F
$$

NORTH CENTRAL TEXAS

CITY           SKY/WX    TMP DP  RH WIND       PRES   REMARKS
SHRMAN/DENISON NOT AVBL
GAINESVILLE    NOT AVBL
BRIDGEPORT     NOT AVBL
DENTON         CLOUDY    31  16  54 S9        30.29F WCI  23
WAXAHACHIE     NOT AVBL
GRANBURY       NOT AVBL
$$

WESTERN NORTH TEXAS

CITY           SKY/WX    TMP DP  RH WIND       PRES   REMARKS
WICHITA FALLS  CLOUDY    34  13  41 S12       30.21R WCI  25
VERNON         NOT AVBL
BRECKENRIDGE   NOT AVBL
COMANCHE       NOT AVBL
$$

CENTRAL AND SOUTH CENTRAL TEXAS

CITY           SKY/WX    TMP DP  RH WIND       PRES   REMARKS
AUSTIN/BERGSTM CLOUDY    41  20  43 S7        30.37F WCI  36
WACO           CLOUDY    38  20  48 S12       30.34F WCI  30
HILLSBORO      NOT AVBL
TEMPLE         CLOUDY    37  18  46 S13       30.34F WCI  29
KILLEEN-GRAY   NOT AVBL
FORT HOOD      NOT AVBL
GEORGETOWN     NOT AVBL
LAGO VISTA     NOT AVBL
SAN MARCOS     NOT AVBL
NEW BRAUNFELS  CLOUDY    42  20  41 S6        30.37S WCI  38
RANDOLPH AFB   NOT AVBL
SAN ANTONIO    CLOUDY    43  16  33 SE7       30.38S WCI  39
STINSON        CLOUDY    44  17  33 S3        30.37S
PLEASANTON     NOT AVBL
LA GRANGE      CLOUDY    40  25  55 SE6       30.39S WCI  36
GIDDINGS       NOT AVBL
$$

EAST TEXAS

CITY           SKY/WX    TMP DP  RH WIND       PRES   REMARKS
PARIS          CLOUDY    35  16  45 S7        30.34R WCI  29
CLARKSVILLE    NOT AVBL
TYLER          CLOUDY    39  18  42 S12       30.33F WCI  32
LONGVIEW       FAIR      38  20  48 S5        30.36R WCI  34
PALESTINE      NOT AVBL
NACOGDOCHES    NOT AVBL
$$

TEXAS HILL COUNTRY AND EDWARDS PLATEAU

CITY           SKY/WX    TMP DP  RH WIND       PRES   REMARKS
LLANO          NOT AVBL
HORSESHOE BAY  NOT AVBL
KERRVILLE      NOT AVBL
FREDERICKSBRG  NOT AVBL
ROCKSPRINGS    NOT AVBL
HONDO          CLOUDY    44  30  57 CALM      30.37F
UVALDE         NOT AVBL
DEL RIO        CLEAR     35  22  58 SE6       30.34S WCI  30
$$

SOUTHEAST TEXAS

CITY           SKY/WX    TMP DP  RH WIND       PRES   REMARKS
COLLEGE STN    CLOUDY    38  22  52 S8        30.40F WCI  32
CALDWELL       NOT AVBL
CROCKETT       NOT AVBL
BRENHAM        NOT AVBL
HUNTSVILLE     CLOUDY    37  18  46 S5        30.39F WCI  33
CONROE         CLOUDY    37  21  52 S6        30.42S WCI  32
HOUSTON BUSH   CLOUDY    37  23  56 CALM      30.43S
HOUSTON HOBBY  CLOUDY    37  24  59 CALM      30.43S
PERLAND        CLOUDY    37  27  67 CALM      30.45S
WHARTON        NOT AVBL
$$

THE UPPER TEXAS COAST

CITY           SKY/WX    TMP DP  RH WIND       PRES   REMARKS
ORANGE         NOT AVBL
PORT ARTHUR    CLOUDY    38  23  55 CALM      30.43F
GALVESTON      CLOUDY    41  30  65 NE6       30.43F WCI  37
ANGLETON       CLOUDY    39  31  72 N6        30.43R WCI  35
BAY CITY       NOT AVBL
$$

TEXAS COASTAL BEND, RIO GRANDE PLAINS DEEP SOUTH TEXAS

CITY           SKY/WX    TMP DP  RH WIND       PRES   REMARKS
VICTORIA       CLOUDY    39  25  57 NE6       30.44S WCI  35
BEEVILLE       NOT AVBL
ROCKPORT       CLOUDY    42  29  59 N12       30.40S WCI  36
PORT ARANSAS   NOT AVBL
PORT LAVACA    CLOUDY    40  30  68 N8        30.43R WCI  34
CORPUS CHRISTI CLOUDY    42  30  62 N12       30.40S WCI  36
KINGSVILLE NAS NOT AVBL
COTULLA        CLOUDY    42  27  55 CALM      30.40S
LAREDO         CLOUDY    42  28  57 N6        30.39F WCI  38
BROWNSVILLE    LGT RAIN  42  41  96 NW8       30.35S FOG     WCI  37
PORT ISABEL    LGT RAIN  43  43 100 NW13      30.33F FOG     WCI  36
HEBBRONVILLE   NOT AVBL
MCALLEN        LGT RAIN  42  39  89 NW9       30.38F FOG     WCI  37
WESLACO        NOT AVBL
FALFURRIAS     NOT AVBL
EDINBURG       NOT AVBL
$$




USA.gov is the U.S. government's official web portal to all federal, state and local government web resources and services.